Location: Unspecified
(37.6100°N, 2.7800°W)
Time: 02:33:37
(UTC+00:00)

OTV 5 (USA 277) - Visible Passes

Search period start: 14 December 2018 00:00
Search period end: 24 December 2018 00:00
Orbit: 340 x 348 km, 54.5° (Epoch: 10 December)

Date Brightness Start Highest point End Pass type
(mag) Time Alt. Az. Time Alt. Az. Time Alt. Az.
14 Dec ? 05:09:27 11° NE 05:09:27 11° NE 05:09:54 10° ENE visible
14 Dec ? 06:40:57 10° NW 06:43:47 58° SW 06:46:35 10° SSE visible
15 Dec ? 05:32:34 31° NE 05:32:34 31° NE 05:35:08 10° ESE visible
16 Dec ? 05:55:46 52° W 05:56:13 62° SW 05:59:02 10° SE visible
17 Dec ? 06:19:03 14° WSW 06:19:39 15° SW 06:21:25 10° SSW visible
18 Dec ? 05:10:57 14° SE 05:10:57 14° SE 05:11:28 10° SE visible
23 Dec ? 18:44:08 10° SSW 18:45:24 21° S 18:45:24 21° S visible
